Weather History for Cairns, QU

Change the Weather History Date:

Saturday, November 12, 2011

  Actual Average Record
Temperature  
Mean Temperature 79 °F -  
Max Temperature 86 °F 87 °F 87 °F (2001)
Min Temperature 72 °F 73 °F 69 °F (1997)
Cooling Degree Days 14    
Growing Degree Days 29 (Base 50)    
Moisture  
Dew Point 67 °F    
Average Humidity 67    
Maximum Humidity 83    
Minimum Humidity 44    
Precipitation  
Precipitation 0.12 in 0.18 in - ()
Sea Level Pressure  
Sea Level Pressure 29.92 in    
Wind  
Wind Speed 9 mph ()    
Max Wind Speed 18 mph    
Max Gust Speed -    
Visibility 7.0 miles    
Events Rain    
Averages and records for this station are not official NWS values.
T = Trace of Precipitation, MM = Missing Value Source: Averaged Metar Reports

Daily Weather History Graph

Daily Weather History Graph

Search for Another Location

Airport:

Trip Planner

Search our weather history database for the weather conditions in past years. The results will help you decide how hot, cold, wet, or windy it might be!

Date:

Astronomy

Nov. 12, 2011 Rise Set
Actual Time 5:35 AM AEST 6:26 PM AEST
Civil Twilight 5:12 AM AEST 6:49 PM AEST
Nautical Twilight 4:45 AM AEST 7:16 PM AEST
Astronomical Twilight 4:18 AM AEST 7:44 PM AEST
Moon 7:40 PM AEST (11/12) 6:16 AM AEST (11/12)
Length of Visible Light 13h 37m
Length of Day
12h 51m
Full, 99% of the Moon is Illuminated
Nov 12
Full
Nov 19
Last Quarter
Nov 25
New
Dec 2
First Quarter
Dec 11
Full

Hourly Weather History & Observations

Time (AEST) Temp. Heat Index Dew Point Humidity Pressure Visibility Wind Dir Wind Speed Gust Speed Precip Events Conditions
12:00 AM 74 °F - 68 °F 75% 29.97 in 16 mi SE 9.2 mph - -   Partly Cloudy
12:00 AM 75.2 °F - 68.0 °F 78% 29.95 in 6.2 mi SE 9.2 mph - N/A   Partly Cloudy
12:30 AM 75.2 °F - 68.0 °F 78% 29.95 in 6.2 mi SE 9.2 mph - N/A   Scattered Clouds
1:00 AM 73.4 °F - 68.0 °F 83% 29.95 in 6.2 mi SSE 8.1 mph - N/A   Scattered Clouds
1:30 AM 73.4 °F - 68.0 °F 83% 29.92 in 6.2 mi SSE 8.1 mph - N/A   Scattered Clouds
2:00 AM 73.4 °F - 68.0 °F 83% 29.92 in 6.2 mi SE 9.2 mph - N/A   Scattered Clouds
2:30 AM 75.2 °F - 68.0 °F 78% 29.92 in 6.2 mi SSE 9.2 mph - N/A   Scattered Clouds
3:00 AM 74 °F - 67 °F 74% 29.91 in 16 mi SE 10.4 mph - -   Partly Cloudy
3:00 AM 73.4 °F - 68.0 °F 83% 29.89 in 6.2 mi SE 10.4 mph - N/A   Scattered Clouds
3:30 AM 73.4 °F - 66.2 °F 78% 29.89 in 6.2 mi SE 9.2 mph - N/A   Partly Cloudy
4:00 AM 73 °F - 65 °F 71% 29.92 in - SSE 8.1 mph - -  
4:00 AM 73.4 °F - 66.2 °F 78% 29.89 in 6.2 mi SSE 8.1 mph - N/A   Partly Cloudy
4:30 AM 73.4 °F - 64.4 °F 73% 29.89 in 6.2 mi SSE 8.1 mph - N/A   Partly Cloudy
5:00 AM 75.2 °F - 64.4 °F 69% 29.89 in 6.2 mi South 6.9 mph - N/A   Partly Cloudy
5:30 AM 73.4 °F - 64.4 °F 73% 29.89 in 6.2 mi South 5.8 mph - N/A   Scattered Clouds
6:00 AM 75 °F - 62 °F 56% 29.92 in 19 mi South 6.9 mph - -   Partly Cloudy
6:00 AM 75.2 °F - 62.6 °F 65% 29.92 in 6.2 mi South 6.9 mph - N/A   Scattered Clouds
6:30 AM 77.0 °F - 62.6 °F 61% 29.92 in 6.2 mi South 5.8 mph - N/A   Scattered Clouds
7:00 AM 76 °F - 63 °F 55% 29.94 in - SSE 5.8 mph - -  
7:00 AM 77.0 °F - 62.6 °F 61% 29.92 in 6.2 mi SSE 5.8 mph - N/A   Partly Cloudy
7:30 AM 77.0 °F - 64.4 °F 65% 29.95 in 6.2 mi SE 8.1 mph - N/A   Scattered Clouds
8:00 AM 78.8 °F - 66.2 °F 65% 29.95 in 6.2 mi South 8.1 mph - N/A   Scattered Clouds
8:30 AM 78.8 °F - 66.2 °F 65% 29.95 in 6.2 mi South 8.1 mph - N/A   Scattered Clouds
9:00 AM 77 °F - 67 °F 63% 29.96 in 5 mi SSE 10.4 mph - - Rain Light Rain Showers
9:00 AM 77.0 °F - 66.2 °F 69% 29.95 in 5.6 mi SSE 10.4 mph - N/A Rain Light Rain Showers
9:13 AM 75.2 °F - 69.8 °F 83% 29.98 in 2.5 mi ESE 9.2 mph - N/A Rain Light Rain Showers
9:30 AM 75.2 °F - 69.8 °F 83% 29.98 in 4.3 mi SE 10.4 mph - N/A Rain Light Rain Showers
9:50 AM 75.2 °F - 69.8 °F 83% 29.98 in 5.6 mi SSE 12.7 mph - N/A Rain Light Rain Showers
10:00 AM 76 °F - 70 °F 77% 29.98 in - South 8.1 mph - -  
10:00 AM 75.2 °F - 69.8 °F 83% 29.95 in 5.6 mi South 8.1 mph - N/A   Mostly Cloudy
10:30 AM 78.8 °F - 69.8 °F 74% 29.95 in 6.2 mi South 6.9 mph - N/A   Mostly Cloudy
10:56 AM 78.8 °F - 68.0 °F 69% 29.95 in 6.2 mi South 17.3 mph - N/A   Scattered Clouds
11:00 AM 78.8 °F - 69.8 °F 74% 29.95 in 6.2 mi South 12.7 mph - N/A   Scattered Clouds
11:30 AM 80.6 °F 84.6 °F 71.6 °F 74% 29.95 in 6.2 mi South 6.9 mph - N/A   Scattered Clouds
12:00 PM 83 °F - 67 °F 50% 29.93 in 16 mi SE 9.2 mph - -   Partly Cloudy
12:00 PM 82.4 °F 85.4 °F 68.0 °F 62% 29.92 in 6.2 mi SE 9.2 mph - N/A   Scattered Clouds
12:30 PM 84.2 °F 85.6 °F 64.4 °F 51% 29.92 in 6.2 mi ESE 13.8 mph - N/A   Partly Cloudy
1:00 PM 86 °F - 68 °F 45% 29.91 in - ESE 16.1 mph - -  
1:00 PM 86.0 °F 89.4 °F 68.0 °F 55% 29.89 in 6.2 mi ESE 16.1 mph - N/A   Partly Cloudy
1:30 PM 86.0 °F 89.4 °F 68.0 °F 55% 29.89 in 6.2 mi ESE 16.1 mph - N/A   Scattered Clouds
2:00 PM 86.0 °F 89.4 °F 68.0 °F 55% 29.86 in 6.2 mi ESE 17.3 mph - N/A   Partly Cloudy
2:30 PM 86.0 °F 88.2 °F 66.2 °F 51% 29.86 in 6.2 mi SE 18.4 mph - N/A   Partly Cloudy
3:00 PM 85 °F - 67 °F 44% 29.87 in 19 mi SE 16.1 mph - -   Partly Cloudy
3:00 PM 84.2 °F 86.6 °F 66.2 °F 55% 29.86 in 6.2 mi SE 16.1 mph - N/A   Partly Cloudy
3:30 PM 86.0 °F 89.4 °F 68.0 °F 55% 29.86 in 6.2 mi SE 17.3 mph - N/A   Partly Cloudy
4:00 PM 84 °F - 66 °F 45% 29.87 in - SE 16.1 mph - -  
4:00 PM 84.2 °F 86.6 °F 66.2 °F 55% 29.86 in 6.2 mi SE 16.1 mph - N/A   Partly Cloudy
4:30 PM 84.2 °F 86.6 °F 66.2 °F 55% 29.86 in 6.2 mi SE 17.3 mph - N/A   Partly Cloudy
5:00 PM 82.4 °F 83.9 °F 64.4 °F 54% 29.86 in 6.2 mi SE 16.1 mph - N/A   Partly Cloudy
5:30 PM 80.6 °F 82.3 °F 64.4 °F 58% 29.89 in 6.2 mi SE 16.1 mph - N/A   Partly Cloudy
6:00 PM 80 °F - 67 °F 55% 29.90 in - SSE 13.8 mph - -  
6:00 PM 80.6 °F 82.7 °F 66.2 °F 61% 29.89 in 6.2 mi SSE 13.8 mph - N/A   Partly Cloudy
6:30 PM 78.8 °F - 66.2 °F 65% 29.89 in 6.2 mi SSE 16.1 mph - N/A   Partly Cloudy
7:00 PM 78 °F - 67 °F 60% 29.91 in - SSE 13.8 mph - -  
7:00 PM 78.8 °F - 66.2 °F 65% 29.89 in 6.2 mi SSE 13.8 mph - N/A   Partly Cloudy
7:30 PM 77.0 °F - 66.2 °F 69% 29.92 in 6.2 mi South 6.9 mph - N/A   Partly Cloudy
8:00 PM 78.8 °F - 66.2 °F 65% 29.92 in 6.2 mi SSW 6.9 mph - N/A   Scattered Clouds
8:30 PM 77.0 °F - 68.0 °F 74% 29.92 in 6.2 mi South 6.9 mph - N/A   Scattered Clouds
9:00 PM 77.0 °F - 68.0 °F 74% 29.92 in 6.2 mi South 8.1 mph - N/A   Mostly Cloudy
9:30 PM 77.0 °F - 68.0 °F 74% 29.92 in 6.2 mi South 9.2 mph - N/A   Partly Cloudy
10:00 PM 77 °F - 68 °F 68% 29.94 in - South 9.2 mph - -  
10:00 PM 77.0 °F - 68.0 °F 74% 29.92 in 6.2 mi South 9.2 mph - N/A   Scattered Clouds
10:30 PM 77.0 °F - 68.0 °F 74% 29.92 in 6.2 mi South 8.1 mph - N/A   Mostly Cloudy
11:00 PM 77.0 °F - 68.0 °F 74% 29.92 in 6.2 mi SSE 8.1 mph - N/A   Mostly Cloudy
11:30 PM 77.0 °F - 68.0 °F 74% 29.92 in 6.2 mi South 8.1 mph - N/A Rain Light Rain Showers
11:54 PM 75.2 °F - 69.8 °F 83% 29.92 in 3.7 mi ENE 6.9 mph - N/A Rain Light Rain Showers